User: anonymous   Login
Location: STAR School
(35.3054°N, 111.2976°W)
Time: 17:44:26
(UTC-07:00)
Language:

KKS-1 - Orbit

View from above orbital plane
View from above orbital plane
View from above satellite
View from above satellite

Ground track
Ground track

The orbit data is extracted from the following two-line orbital elements,

1 33499U 09002H   19113.86114943  .00000060  00000-0  16952-4 0  9993
2 33499  98.3539 310.7762 0009836  31.4718 328.7076 14.75425764550999
Epoch (UTC): 23 April 2019 20:40:03
Eccentricity: 0.0009836
inclination: 98.3539°
perigee height: 637 km
apogee height: 651 km
right ascension of ascending node: 310.7762°
argument of perigee: 31.4718°
revolutions per day: 14.75425764
mean anomaly at epoch: 328.7076°
orbit number at epoch: 55099

The dashed part of the orbit path shows where the satellite is in the earth's shadow,  

DLR